When you browse on this site, cookies collect data to enhance your experience and personalize the content and advertising you see.
Visit our Privacy Policy to learn more. By continuing to use the site, you agree to this use of cookies and data.
  • In Spain
  • List of Countries
  • For 7 days
  • Water Temperature
  • Weather Map
  • Weather Widgets
  • user-avatar
    Login

    Hourly Weather Sharm el-Szeikh

    Today, 18 February, Tuesday

    Time Temperature Precipitation Wind Pressure Humidity
    00:00 +13°C° 0 mm 4 mps 755 mmHg 74%
    01:00 +13°C° 0 mm 4 mps 755 mmHg 73%
    02:00 +12°C° 0 mm 3 mps 755 mmHg 72%
    03:00 +12°C° 0 mm 3 mps 755 mmHg 73%
    04:00 +11°C° 0 mm 3 mps 755 mmHg 74%
    05:00 +11°C° 0 mm 3 mps 755 mmHg 74%
    06:00 +13°C° 0 mm 3 mps 755 mmHg 66%
    07:00 +17°C° 0 mm 3 mps 756 mmHg 58%
    08:00 +19°C° 0 mm 3 mps 756 mmHg 48%
    09:00 +20°C° 0 mm 3 mps 756 mmHg 44%
    10:00 +21°C° 0 mm 4 mps 756 mmHg 41%
    11:00 +23°C° 0 mm 4 mps 756 mmHg 38%
    12:00 +23°C° 0 mm 5 mps 755 mmHg 36%
    13:00 +25°C° 0 mm 5 mps 755 mmHg 33%
    14:00 +24°C° 0 mm 6 mps 754 mmHg 32%
    15:00 +23°C° 0 mm 5 mps 754 mmHg 30%
    16:00 +23°C° 0 mm 5 mps 755 mmHg 28%
    17:00 +22°C° 0 mm 4 mps 755 mmHg 26%
    18:00 +21°C° 0 mm 5 mps 755 mmHg 32%
    19:00 +19°C° 0 mm 6 mps 756 mmHg 38%
    20:00 +16°C° 0 mm 7 mps 756 mmHg 44%
    21:00 +16°C° 0 mm 7 mps 756 mmHg 50%
    22:00 +15°C° 0 mm 7 mps 756 mmHg 56%
    23:00 +15°C° 0 mm 7 mps 756 mmHg 63%

    Tomorrow, 19 February, Wednesday

    Time Temperature Precipitation Wind Pressure Humidity
    00:00 +14°C° 0 mm 7 mps 756 mmHg 64%
    01:00 +14°C° 0 mm 7 mps 756 mmHg 66%
    02:00 +13°C° 0 mm 6 mps 756 mmHg 67%
    03:00 +13°C° 0 mm 6 mps 756 mmHg 68%
    04:00 +12°C° 0 mm 7 mps 756 mmHg 70%
    05:00 +12°C° 0 mm 7 mps 756 mmHg 71%
    06:00 +14°C° 0 mm 7 mps 756 mmHg 64%
    07:00 +15°C° 0 mm 7 mps 756 mmHg 58%
    08:00 +16°C° 0 mm 7 mps 756 mmHg 52%
    09:00 +17°C° 0.1 mm 7 mps 756 mmHg 49%
    10:00 +18°C° 0.1 mm 7 mps 756 mmHg 47%
    11:00 +20°C° 0.1 mm 7 mps 756 mmHg 44%
    12:00 +20°C° 0.2 mm 7 mps 756 mmHg 42%
    13:00 +21°C° 0.2 mm 7 mps 756 mmHg 40%
    14:00 +21°C° 0.2 mm 8 mps 755 mmHg 38%
    15:00 +20°C° 0 mm 7 mps 755 mmHg 38%
    16:00 +20°C° 0 mm 7 mps 756 mmHg 38%
    17:00 +20°C° 0 mm 7 mps 756 mmHg 38%
    18:00 +17°C° 0 mm 6 mps 756 mmHg 42%
    19:00 +16°C° 0 mm 6 mps 757 mmHg 46%
    20:00 +15°C° 0 mm 6 mps 757 mmHg 49%
    21:00 +15°C° 0 mm 6 mps 758 mmHg 50%
    22:00 +14°C° 0 mm 6 mps 758 mmHg 50%
    23:00 +14°C° 0 mm 5 mps 758 mmHg 51%

    Day after tomorrow, 20 February, Thursday

    Time Temperature Precipitation Wind Pressure Humidity
    00:00 +13°C° 0 mm 5 mps 758 mmHg 53%
    01:00 +13°C° 0 mm 5 mps 758 mmHg 56%
    02:00 +13°C° 0 mm 5 mps 758 mmHg 59%
    03:00 +12°C° 0 mm 4 mps 758 mmHg 61%
    04:00 +12°C° 0 mm 4 mps 758 mmHg 62%
    05:00 +12°C° 0 mm 4 mps 758 mmHg 64%
    06:00 +13°C° 0 mm 4 mps 759 mmHg 59%
    07:00 +15°C° 0 mm 4 mps 759 mmHg 54%
    08:00 +17°C° 0 mm 4 mps 760 mmHg 49%
    09:00 +18°C° 0 mm 4 mps 760 mmHg 48%
    10:00 +19°C° 0 mm 4 mps 760 mmHg 46%
    11:00 +20°C° 0 mm 3 mps 760 mmHg 45%
    12:00 +21°C° 0 mm 3 mps 759 mmHg 45%
    13:00 +21°C° 0 mm 3 mps 758 mmHg 44%
    14:00 +22°C° 0 mm 3 mps 758 mmHg 44%
    15:00 +21°C° 0 mm 3 mps 758 mmHg 47%
    16:00 +21°C° 0 mm 2 mps 758 mmHg 49%
    17:00 +20°C° 0 mm 2 mps 757 mmHg 52%
    18:00 +19°C° 0 mm 2 mps 758 mmHg 58%
    19:00 +18°C° 0 mm 1 mps 758 mmHg 65%
    20:00 +16°C° 0 mm 1 mps 758 mmHg 71%
    21:00 +15°C° 0 mm 1 mps 758 mmHg 71%
    22:00 +15°C° 0 mm 2 mps 758 mmHg 72%
    23:00 +15°C° 0 mm 2 mps 758 mmHg 73%

    21 February, Friday

    Time Temperature Precipitation Wind Pressure Humidity
    00:00 +14°C° 0 mm 2 mps 758 mmHg 73%
    01:00 +14°C° 0 mm 2 mps 758 mmHg 74%
    02:00 +13°C° 0 mm 2 mps 757 mmHg 74%
    03:00 +13°C° 0 mm 2 mps 757 mmHg 75%
    04:00 +13°C° 0 mm 2 mps 757 mmHg 76%
    05:00 +13°C° 0 mm 2 mps 757 mmHg 76%
    06:00 +15°C° 0 mm 2 mps 757 mmHg 67%
    07:00 +17°C° 0 mm 2 mps 758 mmHg 58%
    08:00 +19°C° 0 mm 2 mps 758 mmHg 49%
    15:00 +24°C° 0 mm 6 mps 755 mmHg 20%
    16:00 +25°C° 0 mm 5 mps 755 mmHg 21%
    17:00 +23°C° 0 mm 5 mps 755 mmHg 22%
    18:00 +22°C° 0 mm 5 mps 756 mmHg 24%
    19:00 +20°C° 0 mm 6 mps 756 mmHg 27%
    20:00 +19°C° 0 mm 6 mps 756 mmHg 30%
    21:00 +17°C° 0 mm 6 mps 756 mmHg 32%
    22:00 +17°C° 0 mm 6 mps 757 mmHg 34%
    23:00 +16°C° 0 mm 7 mps 757 mmHg 37%

    22 February, Saturday

    Time Temperature Precipitation Wind Pressure Humidity
    00:00 +16°C° 0 mm 6 mps 757 mmHg 39%
    01:00 +15°C° 0 mm 6 mps 756 mmHg 42%
    02:00 +15°C° 0 mm 6 mps 756 mmHg 44%
    03:00 +14°C° 0 mm 6 mps 757 mmHg 47%
    04:00 +14°C° 0 mm 6 mps 757 mmHg 51%
    05:00 +13°C° 0 mm 6 mps 757 mmHg 55%
    06:00 +14°C° 0 mm 6 mps 757 mmHg 51%
    07:00 +16°C° 0 mm 5 mps 758 mmHg 48%
    08:00 +17°C° 0 mm 5 mps 758 mmHg 44%
    09:00 +19°C° 0 mm 5 mps 758 mmHg 43%
    10:00 +20°C° 0 mm 5 mps 758 mmHg 41%
    11:00 +21°C° 0 mm 5 mps 758 mmHg 40%
    12:00 +21°C° 0 mm 5 mps 758 mmHg 39%
    13:00 +21°C° 0 mm 6 mps 757 mmHg 39%
    14:00 +21°C° 0 mm 6 mps 756 mmHg 38%
    15:00 +21°C° 0 mm 6 mps 757 mmHg 39%
    16:00 +20°C° 0 mm 6 mps 757 mmHg 41%
    17:00 +19°C° 0 mm 6 mps 757 mmHg 42%
    18:00 +17°C° 0 mm 6 mps 757 mmHg 47%
    19:00 +16°C° 0 mm 5 mps 758 mmHg 52%
    20:00 +14°C° 0 mm 5 mps 758 mmHg 57%
    21:00 +14°C° 0 mm 4 mps 758 mmHg 59%
    22:00 +13°C° 0 mm 4 mps 758 mmHg 61%
    23:00 +13°C° 0 mm 4 mps 758 mmHg 63%

    23 February, Sunday

    Time Temperature Precipitation Wind Pressure Humidity
    00:00 +13°C° 0 mm 4 mps 758 mmHg 62%
    01:00 +12°C° 0 mm 4 mps 758 mmHg 62%
    02:00 +12°C° 0 mm 5 mps 757 mmHg 62%
    03:00 +12°C° 0 mm 5 mps 757 mmHg 62%
    04:00 +10°C° 0 mm 5 mps 757 mmHg 63%
    05:00 +10°C° 0 mm 5 mps 757 mmHg 64%
    06:00 +12°C° 0 mm 5 mps 758 mmHg 57%
    07:00 +14°C° 0 mm 4 mps 758 mmHg 51%
    08:00 +17°C° 0 mm 4 mps 758 mmHg 45%
    09:00 +18°C° 0 mm 4 mps 758 mmHg 43%
    10:00 +19°C° 0 mm 4 mps 757 mmHg 41%
    11:00 +20°C° 0 mm 4 mps 757 mmHg 39%
    12:00 +20°C° 0 mm 5 mps 756 mmHg 38%
    13:00 +21°C° 0 mm 5 mps 756 mmHg 38%
    14:00 +21°C° 0 mm 6 mps 755 mmHg 38%
    15:00 +20°C° 0 mm 6 mps 755 mmHg 39%
    16:00 +20°C° 0 mm 5 mps 755 mmHg 40%
    17:00 +19°C° 0 mm 5 mps 755 mmHg 40%
    18:00 +17°C° 0 mm 6 mps 755 mmHg 42%
    19:00 +16°C° 0 mm 6 mps 756 mmHg 43%
    20:00 +15°C° 0 mm 6 mps 756 mmHg 45%
    21:00 +15°C° 0 mm 7 mps 756 mmHg 44%
    22:00 +15°C° 0 mm 7 mps 756 mmHg 43%
    23:00 +14°C° 0 mm 7 mps 756 mmHg 42%
    Show more